Location: Newark
(49.8969°N, 3.3422°E)
Time: 09:50:45
(UTC+00:00)

Tiros 1 - Visible Passes

Search period start: 17 January 2021 00:00
Search period end: 27 January 2021 00:00
Orbit: 630 x 663 km, 48.4° (Epoch: 17 January)

Date Brightness Start Highest point End Pass type
(mag) Time Alt. Az. Time Alt. Az. Time Alt. Az.
19 Jan 9.4 19:11:05 10° SSW 19:12:08 15° S 19:12:08 15° S visible
20 Jan 9.2 17:57:25 10° SSE 17:59:10 12° SE 17:59:42 12° SE visible
20 Jan 9.4 19:36:09 10° SW 19:37:23 17° SW 19:37:23 17° SW visible
21 Jan 8.5 18:21:04 10° SSW 18:24:39 22° SE 18:24:53 22° SE visible
21 Jan 9.7 20:01:43 10° WSW 20:02:33 15° WSW 20:02:33 15° WSW visible
22 Jan 9.3 17:07:46 10° SSE 17:09:03 11° SE 17:10:21 10° ESE visible
22 Jan 7.9 18:46:03 10° SW 18:50:00 37° SSE 18:50:00 37° SSE visible
22 Jan 10.2 20:27:33 10° WSW 20:27:40 11° WSW 20:27:40 11° WSW visible
23 Jan 8.7 17:31:02 10° SSW 17:34:32 21° SE 17:37:23 13° E visible
23 Jan 7.9 19:11:34 10° WSW 19:15:03 44° SSW 19:15:03 44° SSW visible
24 Jan 8.0 17:55:57 10° SW 18:00:10 35° SSE 18:02:24 22° ESE visible
24 Jan 8.6 19:37:24 10° WSW 19:40:04 34° WSW 19:40:04 34° WSW visible
25 Jan 7.4 18:21:26 10° WSW 18:25:57 53° SSE 18:27:22 38° ESE visible
25 Jan 9.4 20:03:20 10° W 20:05:02 22° W 20:05:02 22° W visible
26 Jan 8.2 17:05:51 10° SW 17:10:02 34° SSE 17:14:12 10° E visible
26 Jan 7.0 18:47:13 10° WSW 18:51:51 69° S 18:52:19 63° SE visible
26 Jan 10.0 20:29:20 10° W 20:29:59 14° W 20:29:59 14° W visible
